User: anonymous   Login
Location: UBC Liquid-Mirror Observatory
(49.2876°N, 122.5728°W)
Time: 22:36:13
(UTC-07:00)
Language:

KITSAT 1 - Orbit

View from above orbital plane
View from above orbital plane
View from above satellite
View from above satellite

Ground track
Ground track

The orbit data is extracted from the following two-line orbital elements,

1 22077U 92052B   16183.54118255 -.00000054  00000-0  32725-4 0  9999
2 22077  66.0856 341.0364 0011201 224.6064 195.1960 12.86513868122285
Epoch (UTC): 01 July 2016 12:59:18
Eccentricity: 0.0011201
inclination: 66.0856°
perigee height: 1307 km
apogee height: 1324 km
right ascension of ascending node: 341.0364°
argument of perigee: 224.6064°
revolutions per day: 12.86513868
mean anomaly at epoch: 195.1960°
orbit number at epoch: 12228

The dashed part of the orbit path shows where the satellite is in the earth's shadow,  

DLR